"Pseudo-MPEC" for C0MVNR2

Created 2019 May 23 18:07:14 UT using Find_Orb

Click here for an explanation of pseudo-MPECs

 
 Astrometry: 
     C0MVNR2  C2019 05 15.36064 16 42 12.99 -07 25 38.5    ~5F9b 19.8 GVNEOCPG96
     C0MVNR2  C2019 05 15.36735 16 42 09.26 -07 25 10.8    ~5F9b 19.9 GVNEOCPG96
     C0MVNR2  C2019 05 15.37857 16 42 03.06 -07 24 24.1    ~5F9b 20.2 GVNEOCPG96
     C0MVNR2  C2019 05 15.39167216 41 55.58 -07 23 31.2    ~5FA7 20.8 GVNEOCPH01
     C0MVNR2  C2019 05 15.39800816 41 52.08 -07 23 04.7    ~5FA7 19.8 GVNEOCPH01
     C0MVNR2  C2019 05 15.40624816 41 47.54 -07 22 30.2    ~5FA7 20.2 GVNEOCPH01
     C0MVNR2  C2019 05 15.41276416 41 43.93 -07 22 03.0    ~5FA7 20.3 GVNEOCPH01
     C0MVNR2  C2019 05 15.44436 16 41 26.66 -07 19 48.8    ~5FB7 20.3 GVNEOCPI52
     C0MVNR2  C2019 05 15.44512 16 41 26.25 -07 19 45.6    ~5FB7 20.4 GVNEOCPI52
     C0MVNR2  C2019 05 15.44589 16 41 25.83 -07 19 42.6    ~5FB7 19.7 GVNEOCPI52
     C0MVNR2  C2019 05 15.44665 16 41 25.43 -07 19 39.0    ~5FB7 20.1 GVNEOCPI52
     C0MVNR2  C2019 05 16.37074 16 32 44.10 -06 10 21.3    ~5GBM       VNEOCPG96
     C0MVNR2  C2019 05 16.37114 16 32 43.71 -06 10 17.0    ~5GBM 19.6 GVNEOCPG96
     C0MVNR2  C2019 05 16.37155 16 32 43.46 -06 10 16.7    ~5GBM 19.6 GVNEOCPG96
     C0MVNR2  C2019 05 16.37195 16 32 43.10 -06 10 14.7    ~5GBM       VNEOCPG96
     C0MVNR2 KC2019 05 16@B6%`6AOAstrometryZOs=L!D=E5FrUC;redacted;52f.PQU[KwL01
     C0MVNR2 KC2019 05 16qQ7aL@vU:9(o]EnLEg[B\pTX^S3?$dk/V,5v(Eju'`2.8KusH1iVL01
     C0MVNR2 KC2019 05 163G;@4ZyS%b/2x_nCPj$6V*DoUthW_24s3)mclUC/U-#I*Sm.CJ8BL01
     C0MVNR2  C2019 05 17.29796 16 22 41.49 -04 49 56.3    ~5H7b       VNEOCPG96
     C0MVNR2  C2019 05 17.29837 16 22 41.20 -04 49 54.6    ~5H7b       VNEOCPG96
     C0MVNR2  C2019 05 17.29877 16 22 40.92 -04 49 52.6    ~5H7b 20.2 GVNEOCPG96
     C0MVNR2  C2019 05 17.29918 16 22 40.65 -04 49 50.8    ~5H7b       VNEOCPG96
     C0MVNR2 KC2019 05 21.86629 15 03 47.39 +05 36 46.7    ~5LLb 18.9 VqNEOCPI93
     C0MVNR2 KC2019 05 21.87317 15 03 37.00 +05 38 04.9    ~5LLb 19.2 VqNEOCPI93
     C0MVNR2 KC2019 05 21.88005 15 03 26.64 +05 39 22.7    ~5LLb 19.3 VqNEOCPI93
     C0MVNR2 pC2019 05 22sG;YUMm(avvc9Br6Q6k89ovGb^jfP2_x(!1click^(XfCT,G_X8jL01
     C0MVNR2 KC2019 05 22n))bR%/odS[:@ulHP#`X[Miibk(A)sif+?[n4EHI:hx,jNdQay$cL01
     C0MVNR2 KC2019 05 22iG%ZP=here#D)YO:D6:F:Th8:XA$/($gEGiJ[s%xvI[Ux^IvNcBhL01
     C0MVNR2 KC2019 05 22=0[2C6R*ntOocSP6X(2'dAZjVPTSsKc.]`0N9nvgwl*PB@cK,DiMA17
     C0MVNR2 KC2019 05 22$k=5uKhnQQV48f+49L1+Vb'v%,\Iu/(@=,+d]6AqNahfor3v'9-2A17
     C0MVNR2 KC2019 05 22oImEN'RujZqw2W(v:=eGYS4UZNbFwf:wn:XFiI_tWqQ_nkXe0YDdA17
     C0MVNR2 KC2019 05 22.91518414 35 58.44 +09 05 43.3    ~5MNb 19.5 GVNEOCPJ95
     C0MVNR2 KC2019 05 22.92912914 35 34.00 +09 08 38.6    ~5MNb 19.4 GVNEOCPJ95
     C0MVNR2 KC2019 05 22.93648614 35 21.12 +09 10 10.9    ~5MNb 19.3 GVNEOCPJ95
     C0MVNR2 KC2019 05 22.94879914 34 59.44 +09 12 45.9    ~5MNb 19.8 GVNEOCPJ95
     C0MVNR2 KC2019 05 23GSxupEM\9JP-(wP+W6%5-0NUU`uf?s*gM(C'iYtm/[P`2[H;S/K[H21
     C0MVNR2 KC2019 05 23?[Bn!;g+(ngykoBJC64%@t7!89pEv[AW#iX1c!%*TKSvOwfc,8mbH21
     C0MVNR2 KC2019 05 23P`XPbT1^ehMC`^`aEoixlru26Q?Nx[X^m.Gs+gaXeHqKc5pYXI%PH21
     C0MVNR2 KC2019 05 23D7fP0n(kMg9[4;/s(p+ms\7C;ol@k1@uB5#gjwXA,QJW7qO9j1QhH21
     C0MVNR2  C2019 05 23.14116414 29 29.17 +09 53 56.0    ~5N4M 19.5 GVNEOCPH01
     C0MVNR2 KC2019 05 23L4FT%XOTTXAZH1[CfGO#?$=c6H+@c1yu`TO$2J^4roIpg6=pm6u0691
     C0MVNR2  C2019 05 23.14941314 29 14.23 +09 55 42.0    ~5N4M 19.9 GVNEOCPH01
     C0MVNR2 KC2019 05 23e2+'i%D%s`YHksVYE%);ms3cfI8Q##c/_R4],mWFLYdq,@+,F4!m691
     C0MVNR2  C2019 05 23.16244214 28 50.56 +09 58 28.7    ~5N4M 19.1 GVNEOCPH01
     C0MVNR2 KC2019 05 23a40M^I$aBJeN9#explanation[,Z'3mF^fi`fWa3vDl4GJO'FTGu691
     C0MVNR2  C2019 05 23.16605514 28 44.00 +09 59 15.2    ~5N4M 19.4 GVNEOCPH01

Station data:
(691) Steward Observatory, Kitt Peak - Spacewatch  (N31.962174 W111.600327)
   US/Arizona.  Observer J. V. Scotti. 0.9-m f/3 reflector + CCD.
(A17) Guidestar Observatory, Weinheim  (N49.545393 E8.681520)  Germany.
(G96) Mt. Lemmon Survey  (N32.442754 W110.788720)  US/Arizona.  Observers T.
   A. Pruyne, B. M. Africano, E. J. Christensen, G. A. Farneth, D. C. Fuls,
   A. R. Gibbs, A. D. Grauer, H. Groeller, J. A. Johnson, R. A. Kowalski, S.
   M. Larson, G. J. Leonard, R. L. Seaman, F. C. Shelly. 1.5-m reflector +
   10K CCD.
(H01) Magdalena Ridge Observatory, Socorro  (N33.984833 W107.189333)  US/New
   Mexico.  Observers W. H. Ryan, E. V. Ryan. Measurer W. H. Ryan. 2.4-m
   f/8.9 reflector + CCD.
(H21) Astronomical Research Observatory, Westfield  (N39.483057 W87.968270)
   US/Illinois. 0.76-m f/3.0 astrograph + CCD.
(I52) Steward Observatory, Mt. Lemmon Station  (N32.442547 W110.788920)
   US/Arizona.  Observers T. A. Pruyne, B. M. Africano, E. J. Christensen, G.
   A. Farneth, D. C. Fuls, A. R. Gibbs, A. D. Grauer, H. Groeller, J. A.
   Johnson, R. A. Kowalski, S. M. Larson, G. J. Leonard, R. L. Seaman, F. C.
   Shelly. 1.0-m reflector + CCD.
(I93) St Pardon de Conques  (N44.558710 W0.203000)  France.  Observer F.
   Losse. 0.40-m f/3.7 reflector + CCD.
(J95) Great Shefford  (N51.474969 W1.447003)  UK.  Observer P. Birtwhistle.
   0.40-m f/6.0 Schmidt-Cassegrain + CCD.
(L01) Višnjan Observatory, Tičan  (N45.290900 E13.749300)  Croatia.
   Observers K. Korlević, E. Pettarin. Measurer E. Pettarin. 1.0-m f/2.9
   reflector + CCD.

Orbital elements:  C0MVNR2
   Perihelion 2019 Jul 30.614150 +/- 0.1 TT = 14:44:22 (JD 2458695.114150)
Epoch 2019 May 23.0 TT = JDT 2458626.5   Earth MOID: 0.0197   Ve: 0.0121
M 262.16690108 +/- 0.13             Me: 0.0086                AutoNEOCP
n   1.42584435 +/- 8.73e-5          Peri.  297.02182 +/- 0.027
a   0.78178614 +/- 3.19e-5          Node    94.58211 +/- 0.013
e   0.6066518 +/- 0.00123           Incl.    2.20316 +/- 0.006
P   0.69/252.48d           H 24.3   G  0.15   U  6.6  
q 0.30751415 +/- 0.000972    Q 1.25605813 +/- 0.000909
From 46 observations 2019 May 15-23; mean residual 0".45
Residuals in arcseconds: 
190515 G96  .03-  .17+    190516 L01  .22-  .56-    190522 J95  .13-  .04+    
190515 G96  .46-  .06+    190516 L01  .13-  .40-    190522 J95  .44+  .13-    
190515 G96  .54-  .17+    190517 G96  .34+  .96+    190522 J95  .02+  .06+    
190515 H01  .11-  .07+    190517 G96  .50+  .37+    190523 H21  .37+  .12-    
190515 H01  .12-  .10+    190517 G96  .71+  .14+    190523 H21  .02+  .34-    
190515 H01  .06+  .13+    190517 G96  1.2+  .35-    190523 H21  .01+  .13+    
190515 H01  .08-  .02+    190521 I93  .25+  .31+    190523 H21  .31+  .16-    
190515 I52  .30-  .18-    190521 I93  .51-  .44+    190523 H01  .09-  .08-    
190515 I52  .14-  .19-    190521 I93  .56-  .12+    190523 691  .79+  .48-    
190515 I52  .04-  .44-    190522 L01  .63+  .28-    190523 H01  .05-  .17+    
190515 I52  .27+  .05-    190522 L01  .02+  .10+    190523 691  .69-  .43+    
190516 G96  1.9+  .98-    190522 L01  .06-  .21+    190523 H01  .23-  .17-    
190516 G96  .07-  1.4+    190522 A17  .01+  .01+    190523 691  .60-  .06+    
190516 G96  .10+  .30-    190522 A17  .34-  .12-    190523 H01  .04-  .00     
190516 G96  1.5-  .23-    190522 A17  .32-  .17+    
190516 L01  .20-  .31+    190522 J95  .23-  .03-    

Ephemerides (geocentric):
Date (UTC) HH   RA              Dec         delta   r     elong  mag " sig PA
---- -- -- --  -------------   -----------  ------ ------ -----  --- ---- ---
2019 05 23 18  14 10 47.764   +12 06 14.85  .05652 1.0550 137.7 19.7 .141   1
2019 05 23 19  14 09 28.307   +12 15 19.92  .05642 1.0547 137.4 19.7 .136   3
2019 05 23 20  14 08 08.474   +12 24 25.43  .05632 1.0544 137.0 19.7 .132   5
2019 05 23 21  14 06 48.268   +12 33 31.31  .05622 1.0541 136.7 19.7 .128   7
2019 05 23 22  14 05 27.692   +12 42 37.50  .05612 1.0538 136.3 19.7 .123   9
2019 05 23 23  14 04 06.749   +12 51 43.93  .05603 1.0535 135.9 19.7 .119  12
2019 05 24 00  14 02 45.442   +13 00 50.52  .05593 1.0532 135.6 19.8 .115  14
2019 05 24 01  14 01 23.775   +13 09 57.20  .05584 1.0529 135.2 19.8 .112  17
2019 05 24 02  14 00 01.750   +13 19 03.91  .05575 1.0526 134.8 19.8 .108  20
2019 05 24 03  13 58 39.373   +13 28 10.56  .05567 1.0523 134.5 19.8 .105  24
2019 05 24 04  13 57 16.645   +13 37 17.08  .05558 1.0520 134.1 19.8 .103  27
2019 05 24 05  13 55 53.572   +13 46 23.41  .05550 1.0517 133.7 19.8 .100  31
2019 05 24 06  13 54 30.157   +13 55 29.45  .05542 1.0514 133.4 19.8 .099  35
2019 05 24 07  13 53 06.404   +14 04 35.14  .05535 1.0511 133.0 19.8 .097  39
2019 05 24 08  13 51 42.317   +14 13 40.40  .05527 1.0508 132.6 19.8 .097  43
2019 05 24 09  13 50 17.902   +14 22 45.16  .05520 1.0505 132.2 19.8 .097  48
2019 05 24 10  13 48 53.161   +14 31 49.32  .05513 1.0502 131.8 19.8 .097  52
2019 05 24 11  13 47 28.101   +14 40 52.82  .05507 1.0499 131.5 19.8 .098  56
2019 05 24 12  13 46 02.725   +14 49 55.58  .05500 1.0496 131.1 19.8 .100  61
2019 05 24 13  13 44 37.040   +14 58 57.51  .05494 1.0493 130.7 19.8 .102  65
2019 05 24 14  13 43 11.048   +15 07 58.55  .05488 1.0490 130.3 19.8 .105  69
2019 05 24 15  13 41 44.757   +15 16 58.60  .05482 1.0487 129.9 19.9 .109  73
2019 05 24 16  13 40 18.170   +15 25 57.58  .05477 1.0484 129.5 19.9 .113  76
2019 05 24 17  13 38 51.295   +15 34 55.43  .05471 1.0481 129.2 19.9 .117  80
2019 05 24 18  13 37 24.135   +15 43 52.05  .05466 1.0478 128.8 19.9 .122  83
2019 05 24 19  13 35 56.697   +15 52 47.36  .05462 1.0475 128.4 19.9 .127  85
2019 05 24 20  13 34 28.987   +16 01 41.29  .05457 1.0472 128.0 19.9 .133  88
2019 05 24 21  13 33 01.010   +16 10 33.76  .05453 1.0469 127.6 19.9 .138  90
2019 05 24 22  13 31 32.772   +16 19 24.68  .05449 1.0466 127.2 19.9 .145  93
2019 05 24 23  13 30 04.281   +16 28 13.98  .05445 1.0463 126.8 19.9 .151  95
2019 05 25 00  13 28 35.541   +16 37 01.56  .05441 1.0460 126.4 19.9 .158  97
2019 05 25 01  13 27 06.559   +16 45 47.37  .05438 1.0456 126.0 19.9 .165  98
2019 05 25 02  13 25 37.343   +16 54 31.30  .05435 1.0453 125.6 19.9 .172 100
2019 05 25 03  13 24 07.898   +17 03 13.30  .05432 1.0450 125.2 20.0 .179 101
2019 05 25 04  13 22 38.231   +17 11 53.26  .05429 1.0447 124.8 20.0 .186 103
2019 05 25 05  13 21 08.349   +17 20 31.13  .05427 1.0444 124.4 20.0 .194 104
2019 05 25 06  13 19 38.259   +17 29 06.82  .05425 1.0441 124.0 20.0 .201 105
2019 05 25 07  13 18 07.968   +17 37 40.25  .05423 1.0438 123.6 20.0 .209 106
2019 05 25 08  13 16 37.483   +17 46 11.34  .05421 1.0435 123.2 20.0 .217 107
2019 05 25 09  13 15 06.812   +17 54 40.03  .05420 1.0432 122.8 20.0 .225 108
2019 05 25 10  13 13 35.961   +18 03 06.23  .05419 1.0429 122.4 20.0 .233 109
2019 05 25 11  13 12 04.939   +18 11 29.87  .05418 1.0426 122.0 20.0 .241 109
2019 05 25 12  13 10 33.752   +18 19 50.88  .05417 1.0423 121.6 20.0 .249 110
2019 05 25 13  13 09 02.408   +18 28 09.18  .05417 1.0420 121.2 20.1 .258 111
2019 05 25 14  13 07 30.915   +18 36 24.70  .05417 1.0417 120.8 20.1 .266 111
2019 05 25 15  13 05 59.281   +18 44 37.38  .05417 1.0413 120.4 20.1 .274 112
2019 05 25 16  13 04 27.513   +18 52 47.14  .05417 1.0410 120.0 20.1 .283 112
2019 05 25 17  13 02 55.620   +19 00 53.92  .05418 1.0407 119.6 20.1 .291 113